TimePDT,TemperatureF,Dew PointF,Humidity,Sea Level PressureIn,VisibilityMPH,Wind Direction,Wind SpeedMPH,Gust SpeedMPH,PrecipitationIn,Events,Conditions,WindDirDegrees,DateUTC
12:53 AM,34.0,27.0,75,29.98,10.0,Calm,Calm,-,N/A,,Mostly Cloudy,0,2014-04-16 07:53:00
1:53 AM,33.1,27.0,78,29.99,10.0,Calm,Calm,-,N/A,,Scattered Clouds,0,2014-04-16 08:53:00
2:53 AM,30.0,25.0,82,29.99,10.0,Calm,Calm,-,N/A,,Clear,0,2014-04-16 09:53:00
3:53 AM,30.9,27.0,85,29.99,10.0,ENE,4.6,-,N/A,,Mostly Cloudy,60,2014-04-16 10:53:00
4:53 AM,33.1,28.0,82,30.00,10.0,ESE,3.5,-,N/A,,Overcast,120,2014-04-16 11:53:00
5:53 AM,37.0,28.0,70,30.00,10.0,ESE,4.6,-,N/A,,Mostly Cloudy,120,2014-04-16 12:53:00
6:53 AM,37.0,28.9,73,30.03,10.0,SSE,5.8,-,N/A,,Overcast,150,2014-04-16 13:53:00
7:53 AM,39.0,30.0,70,30.04,10.0,SE,6.9,-,N/A,,Overcast,140,2014-04-16 14:53:00
8:53 AM,41.0,30.9,67,30.06,10.0,SSE,10.4,-,N/A,,Overcast,160,2014-04-16 15:53:00
9:53 AM,43.0,33.1,68,30.07,10.0,SW,9.2,-,N/A,,Overcast,220,2014-04-16 16:53:00
10:50 AM,42.8,39.2,87,30.04,4.0,SSW,5.8,-,0.01,Rain,Light Rain,200,2014-04-16 17:50:00
10:53 AM,43.0,39.0,86,30.08,5.0,South,5.8,-,0.01,Rain,Light Rain,180,2014-04-16 17:53:00
11:32 AM,42.1,39.0,89,30.04,4.0,SE,8.1,-,0.05,Rain,Rain,130,2014-04-16 18:32:00
11:53 AM,43.0,39.9,89,30.09,5.0,SE,8.1,-,0.06,Rain,Light Rain,130,2014-04-16 18:53:00
12:07 PM,43.0,39.9,89,30.04,5.0,SSE,8.1,-,0.01,Rain,Light Rain,150,2014-04-16 19:07:00
12:53 PM,44.1,42.1,93,30.08,7.0,SSE,8.1,-,0.02,Rain,Light Rain,160,2014-04-16 19:53:00
1:05 PM,44.1,41.0,89,30.03,3.0,South,10.4,-,0.00,Rain,Light Rain,170,2014-04-16 20:05:00
1:43 PM,46.0,41.0,83,30.02,10.0,South,10.4,-,0.02,,Overcast,170,2014-04-16 20:43:00
1:53 PM,46.0,41.0,83,30.06,10.0,South,11.5,-,0.02,,Overcast,170,2014-04-16 20:53:00
2:33 PM,45.0,42.1,90,30.02,6.0,South,5.8,-,0.02,Rain,Light Rain,190,2014-04-16 21:33:00
2:53 PM,46.0,41.0,83,30.06,7.0,SSE,4.6,-,0.03,Rain,Light Rain,150,2014-04-16 21:53:00
3:53 PM,46.0,42.1,86,30.04,10.0,ESE,3.5,-,0.01,,Overcast,110,2014-04-16 22:53:00
4:36 PM,46.9,43.0,86,29.99,10.0,East,4.6,-,0.01,,Overcast,80,2014-04-16 23:36:00
4:53 PM,46.0,44.1,93,30.03,10.0,ESE,4.6,-,0.01,,Overcast,120,2014-04-16 23:53:00
5:08 PM,46.0,43.0,89,29.99,10.0,ESE,5.8,-,N/A,,Overcast,120,2014-04-17 00:08:00
5:53 PM,45.0,42.1,90,30.02,10.0,East,3.5,-,0.00,,Overcast,90,2014-04-17 00:53:00
6:53 PM,46.0,43.0,89,30.01,10.0,East,3.5,-,N/A,,Partly Cloudy,80,2014-04-17 01:53:00
7:53 PM,43.0,41.0,93,30.00,10.0,Calm,Calm,-,N/A,,Scattered Clouds,0,2014-04-17 02:53:00
8:53 PM,42.1,41.0,96,30.00,10.0,Calm,Calm,-,N/A,,Mostly Cloudy,0,2014-04-17 03:53:00
9:32 PM,39.9,37.9,93,29.97,1.5,Calm,Calm,-,N/A,,Mostly Cloudy,0,2014-04-17 04:32:00
9:45 PM,37.9,37.0,97,29.97,0.5,Calm,Calm,-,N/A,Fog,Fog,0,2014-04-17 04:45:00
9:53 PM,37.9,37.0,97,30.00,0.2,Calm,Calm,-,N/A,Fog,Fog,0,2014-04-17 04:53:00
10:30 PM,37.0,36.0,96,29.96,1.8,Calm,Calm,-,N/A,,Overcast,0,2014-04-17 05:30:00
10:37 PM,37.0,36.0,96,29.96,0.8,Calm,Calm,-,N/A,,Overcast,0,2014-04-17 05:37:00
10:46 PM,36.0,36.0,100,29.96,2.0,Calm,Calm,-,N/A,,Overcast,0,2014-04-17 05:46:00
10:53 PM,37.0,35.1,93,29.99,3.0,Calm,Calm,-,N/A,,Overcast,0,2014-04-17 05:53:00
10:55 PM,37.0,36.0,96,29.96,1.2,Calm,Calm,-,N/A,,Overcast,0,2014-04-17 05:55:00
11:09 PM,36.0,35.1,97,29.95,3.0,Calm,Calm,-,N/A,,Overcast,0,2014-04-17 06:09:00
11:53 PM,37.9,37.0,97,29.99,10.0,Calm,Calm,-,N/A,,Overcast,0,2014-04-17 06:53:00